Du Bois, PA

12:05 AM EDT on March 28, 2017 (GMT -0400)
Du Bois-Jefferson County

Weather History for KDUJ - September, 2014

Change the Weather History Date:

Monday, September 15, 2014

  Actual Average Record
Temperature  
Mean Temperature 52 °F 60 °F  
Max Temperature 64 °F 70 °F 82 °F (1970)
Min Temperature 39 °F 50 °F 36 °F (2001)
Degree Days  
Heating Degree Days 13 6  
Month to date heating degree days 64 56  
Since 1 July heating degree days 136 118  
Cooling Degree Days 0 1  
Month to date cooling degree days 34 22  
Year to date cooling degree days 409 353  
Growing Degree Days 2 (Base 50)    
Moisture  
Dew Point 45 °F    
Average Humidity 76    
Maximum Humidity 100    
Minimum Humidity 52    
Precipitation  
Precipitation 0.04 in 0.12 in 2.82 in (2002)
Month to date precipitation 0.95 1.90  
Sea Level Pressure  
Sea Level Pressure 30.20 in    
Wind  
Wind Speed 4 mph (SE)    
Max Wind Speed 14 mph    
Max Gust Speed 19 mph    
Visibility 5 miles    
Events Fog , Rain    
T = Trace of Precipitation, MM = Missing Value Source: NWS Daily Summary

Daily Weather History Graph

Daily Weather History Graph

Search for Another Location

Airport or City:

Trip Planner

Search our weather history database for the weather conditions in past years. The results will help you decide how hot, cold, wet, or windy it might be!

Date:

Astronomy

Sep. 15, 2014 Rise Set
Actual Time 6:56 AM EDT 7:24 PM EDT
Civil Twilight 6:28 AM EDT 7:52 PM EDT
Nautical Twilight 5:55 AM EDT 8:24 PM EDT
Astronomical Twilight 5:22 AM EDT 8:58 PM EDT
Moon No Moon Rise 1:58 PM EDT (9/15)
Length of Visible Light 13h 24m
Length of Day
12h 28m
Waning Gibbous, 54% of the Moon is Illuminated
Sep 15
Waning Gibbous
Sep 15
Last Quarter
Sep 24
New
Oct 1
First Quarter
Oct 8
Full

Hourly Weather History & Observations

Time (EDT) Temp. Windchill Dew Point Humidity Pressure Visibility Wind Dir Wind Speed Gust Speed Precip Events Conditions
12:53 AM 45.0 °F - 44.1 °F 97% 30.23 in 10.0 mi Calm Calm - N/A   Clear
1:27 AM 44.1 °F 42.5 °F 43.0 °F 96% 30.22 in 1.2 mi East 3.5 mph - N/A   Partly Cloudy
1:39 AM 43.0 °F 41.3 °F 43.0 °F 100% 30.23 in 0.8 mi East 3.5 mph - N/A   Mostly Cloudy
1:53 AM 45.0 °F - 45.0 °F 100% 30.24 in 0.8 mi Calm Calm - N/A   Overcast
2:05 AM 45.0 °F - 44.1 °F 97% 30.23 in 2.5 mi Calm Calm - N/A   Overcast
2:12 AM 44.1 °F - 44.1 °F 100% 30.23 in 6.0 mi Calm Calm - N/A   Mostly Cloudy
2:30 AM 45.0 °F - 44.1 °F 97% 30.23 in 1.8 mi Calm Calm - N/A   Partly Cloudy
2:43 AM 44.1 °F - 44.1 °F 100% 30.23 in 4.0 mi Calm Calm - N/A   Clear
2:51 AM 44.6 °F - 44.6 °F 100% 30.23 in 1.8 mi Calm Calm - N/A   Clear
2:53 AM 45.0 °F - 44.1 °F 97% 30.24 in 1.0 mi Calm Calm - N/A   Clear
3:01 AM 44.1 °F - 44.1 °F 100% 30.23 in 0.2 mi Calm Calm - N/A Fog Fog
3:37 AM 44.1 °F - 43.0 °F 96% 30.22 in 0.2 mi Calm Calm - N/A Fog Fog
3:53 AM 43.0 °F - 43.0 °F 100% 30.24 in 0.2 mi Calm Calm - N/A Fog Fog
4:01 AM 43.0 °F 41.3 °F 43.0 °F 100% 30.22 in 1.0 mi East 3.5 mph - N/A   Mist
4:05 AM 43.0 °F - 43.0 °F 100% 30.22 in 2.0 mi Calm Calm - N/A   Scattered Clouds
4:12 AM 42.1 °F 40.2 °F 41.0 °F 96% 30.22 in 1.2 mi ESE 3.5 mph - N/A   Partly Cloudy
4:18 AM 43.0 °F - 43.0 °F 100% 30.22 in 3.0 mi Calm Calm - N/A   Clear
4:53 AM 42.1 °F 40.2 °F 42.1 °F 100% 30.23 in 4.0 mi East 3.5 mph - N/A   Clear
5:53 AM 41.0 °F 38.0 °F 41.0 °F 100% 30.24 in 5.0 mi East 4.6 mph - N/A   Clear
6:53 AM 39.9 °F 37.8 °F 39.9 °F 100% 30.25 in 4.0 mi East 3.5 mph - N/A   Clear
7:16 AM 39.9 °F - 39.9 °F 100% 30.24 in 1.2 mi Calm Calm - N/A   Clear
7:23 AM 39.9 °F - 39.0 °F 97% 30.24 in 0.5 mi Calm Calm - N/A Fog Fog
7:30 AM 39.9 °F - 39.9 °F 100% 30.24 in 2.5 mi Calm Calm - N/A   Clear
7:37 AM 39.9 °F - 39.0 °F 97% 30.24 in 4.0 mi Calm Calm - N/A   Clear
7:53 AM 41.0 °F - 39.9 °F 96% 30.27 in 5.0 mi Calm Calm - N/A   Clear
8:53 AM 48.0 °F - 46.0 °F 93% 30.25 in 10.0 mi SSE 3.5 mph - N/A   Clear
9:53 AM 53.1 °F - 48.0 °F 83% 30.25 in 10.0 mi Calm Calm - N/A   Clear
10:53 AM 57.0 °F - 46.0 °F 67% 30.24 in 10.0 mi SSE 5.8 mph - N/A   Clear
11:53 AM 60.1 °F - 46.0 °F 60% 30.22 in 10.0 mi Variable 3.5 mph - N/A   Partly Cloudy
12:53 PM 61.0 °F - 46.0 °F 58% 30.20 in 10.0 mi WSW 8.1 mph - N/A   Mostly Cloudy
1:53 PM 61.0 °F - 45.0 °F 56% 30.18 in 10.0 mi Variable 3.5 mph - N/A   Scattered Clouds
2:53 PM 62.1 °F - 46.0 °F 56% 30.13 in 10.0 mi South 10.4 mph - N/A   Clear
3:53 PM 64.0 °F - 46.0 °F 52% 30.13 in 10.0 mi SW 8.1 mph - N/A   Clear
4:53 PM 62.1 °F - 48.0 °F 60% 30.09 in 10.0 mi SSW 5.8 mph - N/A   Clear
5:53 PM 61.0 °F - 48.9 °F 64% 30.11 in 10.0 mi West 4.6 mph - N/A   Clear
6:53 PM 59.0 °F - 50.0 °F 72% 30.12 in 10.0 mi WNW 5.8 mph - N/A   Partly Cloudy
7:53 PM 57.9 °F - 50.0 °F 75% 30.09 in 10.0 mi NNW 3.5 mph - N/A   Mostly Cloudy
8:53 PM 55.0 °F - 51.1 °F 86% 30.08 in 10.0 mi Calm Calm - N/A   Overcast
9:53 PM 55.0 °F - 51.1 °F 86% 30.06 in 10.0 mi SE 3.5 mph - N/A   Overcast
10:53 PM 55.0 °F - 52.0 °F 89% 30.05 in 10.0 mi Calm Calm - N/A   Overcast
11:53 PM 54.0 °F - 53.1 °F 97% 30.06 in 6.0 mi NW 3.5 mph - 0.01 in Rain Light Rain